Weather History for Minot, ND

Change the Weather History Date:

Sunday, October 27, 2013

  Actual Average Record
Temperature  
Mean Temperature 37 °F 39 °F  
Max Temperature 48 °F 49 °F 78 °F (1938)
Min Temperature 25 °F 29 °F -7 °F (1919)
Degree Days  
Heating Degree Days 28 26  
Month to date heating degree days 573 531  
Since 1 July heating degree days 764 851  
Cooling Degree Days 0 0  
Month to date cooling degree days 0 0  
Year to date cooling degree days 421 444  
Moisture  
Dew Point 25 °F    
Average Humidity 63    
Maximum Humidity 76    
Minimum Humidity 49    
Precipitation  
Precipitation 0.00 in 0.02 in 0.33 in (1984)
Month to date precipitation 2.32 1.04  
Year to date precipitation 24.66 15.94  
Sea Level Pressure  
Sea Level Pressure 30.10 in    
Wind  
Wind Speed 14 mph (North)    
Max Wind Speed 22 mph    
Max Gust Speed 29 mph    
Visibility 10 miles    
Events      
T = Trace of Precipitation, MM = Missing Value Source: NWS Daily Summary

Daily Weather History Graph

Daily Weather History Graph

Search for Another Location

Airport:

Trip Planner

Search our weather history database for the weather conditions in past years. The results will help you decide how hot, cold, wet, or windy it might be!

Date:

Astronomy

Oct. 27, 2013 Rise Set
Actual Time 8:23 AM CDT 6:33 PM CDT
Civil Twilight 7:51 AM CDT 7:06 PM CDT
Nautical Twilight 7:14 AM CDT 7:42 PM CDT
Astronomical Twilight 6:38 AM CDT 8:18 PM CDT
Moon 12:51 AM CDT (10/27) 3:12 PM CDT (10/27)
Length of Visible Light 11h 14m
Length of Day
10h 10m
Last Quarter, 43% of the Moon is Illuminated
Oct 27
Last Quarter
Nov 3
New
Nov 9
First Quarter
Nov 17
Full
Nov 25
Last Quarter

Hourly Weather History & Observations

Time (CDT) Temp. Windchill Dew Point Humidity Pressure Visibility Wind Dir Wind Speed Gust Speed Precip Events Conditions
12:54 AM 46.9 °F - 28.9 °F 50% 29.81 in 10.0 mi WSW 15.0 mph - N/A   Clear
1:54 AM 46.0 °F 40.6 °F 30.0 °F 54% 29.79 in 10.0 mi West 11.5 mph - N/A   Clear
2:54 AM 39.9 °F 35.1 °F 30.0 °F 68% 29.82 in 10.0 mi SW 6.9 mph - N/A   Clear
3:54 AM 42.1 °F 35.7 °F 30.9 °F 65% 29.81 in 10.0 mi West 11.5 mph - N/A   Clear
4:54 AM 39.9 °F 33.9 °F 30.9 °F 70% 29.83 in 10.0 mi WNW 9.2 mph - N/A   Clear
5:54 AM 39.0 °F 31.8 °F 32.0 °F 76% 29.85 in 10.0 mi NW 11.5 mph - N/A   Clear
6:54 AM 39.0 °F 32.8 °F 30.0 °F 70% 29.88 in 10.0 mi NNW 9.2 mph - N/A   Mostly Cloudy
7:54 AM 37.0 °F 29.8 °F 30.0 °F 76% 29.91 in 10.0 mi NNW 10.4 mph - N/A   Mostly Cloudy
8:54 AM 36.0 °F 28.0 °F 28.9 °F 76% 29.95 in 10.0 mi North 11.5 mph - N/A   Partly Cloudy
9:54 AM 37.0 °F 27.7 °F 28.0 °F 70% 29.99 in 10.0 mi North 16.1 mph - N/A   Clear
10:54 AM 37.9 °F 29.6 °F 28.0 °F 68% 30.03 in 10.0 mi NNE 13.8 mph 24.2 mph N/A   Mostly Cloudy
11:51 AM 39.2 °F 32.0 °F 28.4 °F 65% 30.02 in 10.0 mi North 11.5 mph - N/A   Overcast
11:54 AM 39.0 °F 31.0 °F 28.0 °F 65% 30.06 in 10.0 mi North 13.8 mph - N/A   Overcast
12:54 PM 37.9 °F 29.2 °F 27.0 °F 65% 30.09 in 10.0 mi NNE 15.0 mph - N/A   Overcast
1:54 PM 37.0 °F 27.7 °F 27.0 °F 67% 30.12 in 10.0 mi NE 16.1 mph 20.7 mph N/A   Overcast
2:54 PM 36.0 °F 26.3 °F 27.0 °F 70% 30.15 in 10.0 mi NNE 16.1 mph - N/A   Overcast
3:54 PM 36.0 °F 26.0 °F 26.1 °F 67% 30.17 in 10.0 mi North 17.3 mph 23.0 mph N/A   Overcast
4:46 PM 35.6 °F 25.5 °F 24.8 °F 65% 30.15 in 10.0 mi NNE 17.3 mph 24.2 mph N/A   Overcast
4:54 PM 35.1 °F 25.9 °F 25.0 °F 67% 30.21 in 10.0 mi NNE 13.8 mph 24.2 mph N/A   Overcast
5:02 PM 35.6 °F 24.5 °F 24.8 °F 65% 30.16 in 10.0 mi NNE 20.7 mph 27.6 mph N/A   Overcast
5:54 PM 34.0 °F 23.4 °F 23.0 °F 64% 30.26 in 10.0 mi North 17.3 mph 21.9 mph N/A   Overcast
6:54 PM 30.0 °F 17.5 °F 21.0 °F 69% 30.31 in 10.0 mi NNE 19.6 mph 25.3 mph N/A   Overcast
7:54 PM 28.0 °F 15.3 °F 19.0 °F 69% 30.35 in 10.0 mi NNE 18.4 mph 26.5 mph N/A   Overcast
8:54 PM 27.0 °F 13.5 °F 18.0 °F 69% 30.39 in 10.0 mi NNE 19.6 mph 27.6 mph N/A   Overcast
9:19 PM 26.6 °F 14.7 °F 17.6 °F 69% 30.33 in 10.0 mi NNE 15.0 mph 23.0 mph N/A   Overcast
9:54 PM 27.0 °F 14.7 °F 16.0 °F 63% 30.43 in 10.0 mi NE 16.1 mph - N/A   Overcast
10:54 PM 25.0 °F 13.6 °F 15.1 °F 66% 30.46 in 10.0 mi NE 12.7 mph - N/A   Overcast
11:54 PM 25.0 °F 14.8 °F 14.0 °F 63% 30.49 in 10.0 mi NE 10.4 mph - N/A   Overcast